Regional Weather Roundup
Issued by NWS

Home | Current Version | Previous Version | Text Only | Print | Product List | Glossary Off
Versions: 1 2 3 4 5 6 7 8 9 10 11 12 13 14 15 16 17 18 19 20 21 22 23 24 25 26 27 28 29 30 31 32 33 34 35 36 37 38 39 40 41 42 43 44 45 46 47 48 49 50

000
ASUS43 KBIS 250810
RWRND
NORTH DAKOTA REGIONAL WEATHER ROUNDUP
NATIONAL WEATHER SERVICE EASTERN NORTH DAKOTA/GRAND FORKS ND
200 AM CST SUN FEB 25 2018

  NOTE: "FAIR" INDICATES FEW OR NO CLOUDS BELOW 12,000 FEET WITH NO
  SIGNIFICANT WEATHER AND/OR OBSTRUCTIONS TO VISIBILITY.

NDZ001>003-009>011-017-250900-
...NORTHWEST NORTH DAKOTA...

CITY           SKY/WX    TMP DP  RH WIND       PRES   REMARKS
WILLISTON      CLOUDY    22  16  78 W12       29.61R WCI  10
MINOT          CLOUDY    23  18  81 W18       29.52R WCI   9
MINOT AFB      MIX PCPN  21  18  87 W14         N/A  WCI   8
$$

NDZ018>021-031>035-040>046-250900-
...SOUTHWEST NORTH DAKOTA...

CITY           SKY/WX    TMP DP  RH WIND       PRES   REMARKS
BISMARCK       MOCLDY    15   9  76 NW7       29.59S WCI   5
DICKINSON      MOCLDY    18  15  88 W22       29.58S WCI   1
GARRISON         N/A     21  18  88 NW17      29.54S WCI   7
HETTINGER      FAIR      15  10  80 W21       29.64R WCI  -2
$$

NDZ004>008-012>016-024-026-027-054-250900-
...NORTHEAST NORTH DAKOTA...

CITY           SKY/WX    TMP DP  RH WIND       PRES   REMARKS
GRAND FORKS    CLOUDY    16  14  92 CALM      29.51F
GRAND FORKS AF CLOUDY    16  12  86 W6        29.51F WCI   7
DEVILS LAKE    CLOUDY     9   7  92 W10       29.50F WCI  -5
$$

NDZ022-023-025-028>030-036>039-047>053-250900-
...SOUTHEAST NORTH DAKOTA...

CITY           SKY/WX    TMP DP  RH WIND       PRES   REMARKS
JAMESTOWN      FAIR       9   5  84 W13       29.53R WCI  -7
FARGO          CLOUDY    16  14  92 W6        29.53F WCI   7
WAHPETON       CLOUDY    18  14  86 W16       29.55S WCI   3
$$




USA.gov is the U.S. government's official web portal to all federal, state and local government web resources and services.